Simultaneous Nadir Overpasses (SNOs) Predictions

Prediction of SNOs between AQUA and METOP-B Satellite Orbit:

Table of predicted SNOs for the next 14.0 days since TLE Epoch: 9/26/2014
Index Date (AQUA) Time (AQUA) Lat,Lon (AQUA) SZA (AQUA ) Date (METOP-B) Time (METOP-B) Lat,Lon (METOP-B) SZA (METOP-B ) Distance(km) Time Diff (sec)
1 09/27/2014 08:24:40 -73.83,-131.94 104.58 09/27/2014 08:24:17 -73.83,-131.85 104.58 2.65 23
2 09/27/2014 09:14:09 73.90, 35.55 75.51 09/27/2014 09:14:56 73.89, 35.61 75.49 2.72 47
3 09/30/2014 03:09:16 73.12, 128.36 75.77 09/30/2014 03:08:11 73.05, 125.47 75.76 93.83 65
4 09/30/2014 03:58:55 -73.83, -65.49 103.49 09/30/2014 03:58:37 -73.82, -65.46 103.50 1.33 18
5 09/30/2014 04:48:24 73.90, 101.98 76.60 09/30/2014 04:49:16 73.88, 102.01 76.58 2.68 52
6 10/02/2014 22:43:33 73.32,-165.61 77.07 10/02/2014 22:42:25 73.29,-167.60 77.07 63.54 68
7 10/02/2014 23:33:08 -73.82, 0.97 102.41 10/02/2014 23:32:56 -73.81, 0.91 102.42 2.31 12
8 10/03/2014 00:22:37 73.90, 168.44 77.68 10/03/2014 00:23:34 73.91, 168.50 77.70 2.92 57
9 10/05/2014 18:17:51 73.57, -99.69 78.41 10/05/2014 18:16:40 73.52,-100.67 78.37 31.24 71
10 10/05/2014 19:07:22 -73.86, 67.34 101.29 10/05/2014 19:07:15 -73.84, 67.40 101.31 2.81 7
11 10/05/2014 19:56:50 73.89,-125.09 78.75 10/05/2014 19:57:54 73.90,-125.13 78.76 1.60 64
12 10/08/2014 13:52:07 73.77, -33.66 79.68 10/08/2014 13:50:55 73.75, -33.74 79.67 3.24 72
13 10/08/2014 14:41:34 -73.83, 133.83 100.24 10/08/2014 14:41:34 -73.86, 133.87 100.21 3.18 0




NCC Satellite Simultaneous Nadir Overpasses (SNOs) Prediction Service
